Regional Weather Roundup
Issued by NWS State College, PA

Home | Current Version | Previous Version | Text Only | Print | Product List | Glossary Off
Versions: 1 2 3 4 5 6 7 8 9 10 11 12 13 14 15 16 17 18 19 20 21 22 23 24 25 26 27 28 29 30 31 32 33 34 35 36 37 38 39 40 41 42 43 44 45 46 47 48 49 50

000
ASUS41 KCTP 211103
RWRCTP

REGIONAL WEATHER ROUNDUP
NATIONAL WEATHER SERVICE STATE COLLEGE PA
600 AM EST SAT JAN 21 2017

Note: "fair" indicates few or no clouds below 12,000 feet with no
significant weather and/or obstructions to visibility.

* = STATION THAT DOES NOT REPORT PRECIPITATION /E.G. RAIN...SNOW...ETC/
    THUNDER OR FOG.

PAZ002>004-007>009-013>016-020>023-029>032-211200-
WESTERN PENNSYLVANIA

CITY           SKY/WX    TMP DP  RH WIND       PRES   REMARKS
ERIE           PTCLDY    48  46  93 S7        29.77F
MEADVILLE      CLEAR     46  44  93 S5        29.79S FOG
FRANKLIN*        N/A     39  37  93 S6        29.82S VSB 1/4
NEW CASTLE     FOG       38  38 100 CALM      29.82R VSB 1/4
BEAVER COUNTY  NOT AVBL
BUTLER*          N/A     39  37  93 CALM      29.84S VSB<1/4
PITTSBURGH INT FOG       42  42 100 CALM      29.81R VSB 1/2
PITTSBURGH     FOG       46  44  93 S7        29.81F VSB 3/4
INDIANA*       FOG       41  41 100 SE5       29.85F VSB 1
LATROBE        MOCLDY    41  41 100 CALM      29.83F FOG
WASHINGTON CO* CLOUDY    36  36 100 CALM      29.82R VSB 3/4
$$

PAZ004>006-010>012-017>019-024>028-033>037-041-042-045-046-049>053-211200-
CENTRAL PENNSYLVANIA

CITY           SKY/WX    TMP DP  RH WIND       PRES   REMARKS
BRADFORD       CLOUDY    47  46  97 W3        29.82R
DUBOIS         FOG       41  38  89 CALM      29.82S VSB 1
CLEARFIELD     FOG       37  37 100 N5        29.85R VSB 1/4
JOHNSTOWN      MOCLDY    47  47 100 S5        29.83S
ALTOONA        FOG       36  36 100 CALM      29.86S VSB 1/4
STATE COLLEGE  FOG       37  37 100 CALM      29.87R VSB 1/8
WILLIAMSPORT   FOG       39  38  96 CALM      29.88S VSB 1/4
SELINSGROVE    FOG       39  39 100 CALM      29.89F VSB 1/4
FT INDIANTOWN  FOG       38  38 100 CALM      29.89S VSB 1/4
CAPITAL CITY   FOG       41  39  93 CALM      29.90S VSB 1/4
HARRISBURG     FOG       39  39 100 CALM      29.89S VSB 1/8
YORK           FOG       41  41 100 CALM      29.90R VSB 1/4
$$

PAZ038>040-043-044-047-048-054-055-060>062-067>071-211200-
EASTERN PENNSYLVANIA

CITY           SKY/WX    TMP DP  RH WIND       PRES   REMARKS
SCRANTON       CLOUDY    39  39 100 SW5       29.86F FOG
MOUNT POCONO   CLOUDY    37  36  96 W8        29.84R FOG
ALLENTOWN      FOG       39  37  92 SW3       29.89S VSB 3/4
QUAKERTOWN*    CLOUDY    39  39 100 CALM      29.90S VSB 1/4
READING        FOG       39  39 100 CALM      29.89S VSB 1/2
LANCASTER      FOG       42  42 100 CALM      29.89S VSB 1/4
COATESVILLE    FOG       41  41 100 CALM      29.90S VSB<1/4
POTTSTOWN      FOG       39  39 100 CALM      29.91S VSB 1/2
BLUE BELL      CLOUDY    41  41 100 CALM      29.89S
DOYLESTOWN     FOG       42  41  96 SW3       29.89S VSB 3/4
WILLOW GROVE   NOT AVBL
NORTH PHILA    CLOUDY    43  43 100 CALM      29.92S FOG
PHILADELPHIA   CLOUDY    42  41  96 CALM      29.92S FOG
$$



USA.gov is the U.S. government's official web portal to all federal, state and local government web resources and services.